Volver al catálogo

STARLINK-3813

ActivoComunicacionesVLEO
NORAD 52482·PAYLOAD·🇺🇸 United States

Lanzado May 6, 2022 desde Cape Canaveral Space Force Station

Loading…

Próximos Pases (próximas 24 horas)

TLE

ActualizadoSource: CelesTrak SupGP

Época: Sep 14, 2026, 20:43 UTC

1 52482C 22049AH  26257.86368056  .00038835  00000+0  11787-2 0  2571
2 52482  53.1586 270.1493 0001323  84.6562 140.7571 15.33522349    10

Sigue STARLINK-3813 en tiempo real con AllMySat

Download on the App Store